Time,TemperatureF,DewpointF,PressureIn,WindDirection,WindDirectionDegrees,WindSpeedMPH,WindSpeedGustMPH,Humidity,HourlyPrecipIn,Conditions,Clouds,dailyrainin,SoftwareType,DateUTC
2013-08-11 00:00:00,68.4,66.0,30.06,ENE,78,0.0,0.0,92,0.00,,,0.00,Wunderground v.1.13,2013-08-11 04:00:00,
2013-08-11 00:05:00,68.3,65.9,30.06,ENE,78,0.0,0.0,92,0.00,,,0.00,Wunderground v.1.13,2013-08-11 04:05:00,
2013-08-11 00:15:00,68.1,65.4,30.06,ENE,78,0.0,0.0,91,0.00,,,0.00,Wunderground v.1.13,2013-08-11 04:15:00,
2013-08-11 00:25:00,67.8,65.4,30.06,ENE,78,0.0,0.0,92,0.00,,,0.00,Wunderground v.1.13,2013-08-11 04:25:00,
2013-08-11 00:30:00,67.7,65.3,30.06,ENE,78,0.0,0.0,92,0.00,,,0.00,Wunderground v.1.13,2013-08-11 04:30:00,
2013-08-11 00:40:00,67.5,65.1,30.07,ENE,78,0.0,0.0,92,0.00,,,0.00,Wunderground v.1.13,2013-08-11 04:40:00,
2013-08-11 00:45:00,67.4,65.0,30.06,ENE,78,0.0,0.0,92,0.00,,,0.00,Wunderground v.1.13,2013-08-11 04:45:00,
2013-08-11 00:55:00,67.3,64.9,30.06,ENE,78,0.0,0.0,92,0.00,,,0.00,Wunderground v.1.13,2013-08-11 04:55:00,
2013-08-11 01:00:00,67.2,64.8,30.06,ENE,78,0.0,0.0,92,0.00,,,0.00,Wunderground v.1.13,2013-08-11 05:00:00,
2013-08-11 01:05:00,67.1,64.7,30.06,ENE,78,0.0,0.0,92,0.00,,,0.00,Wunderground v.1.13,2013-08-11 05:05:00,
2013-08-11 01:25:00,66.9,64.8,30.06,ENE,78,0.0,0.0,93,0.00,,,0.00,Wunderground v.1.13,2013-08-11 05:25:00,
2013-08-11 01:30:00,66.9,64.8,30.06,ENE,78,0.0,0.0,93,0.00,,,0.00,Wunderground v.1.13,2013-08-11 05:30:00,
2013-08-11 01:40:00,66.8,64.7,30.06,ENE,78,0.0,0.0,93,0.00,,,0.00,Wunderground v.1.13,2013-08-11 05:40:00,
2013-08-11 01:50:00,66.5,64.4,30.06,ENE,78,0.0,0.0,93,0.00,,,0.00,Wunderground v.1.13,2013-08-11 05:50:00,
2013-08-11 01:55:00,66.3,63.9,30.06,ENE,78,0.0,0.0,92,0.00,,,0.00,Wunderground v.1.13,2013-08-11 05:55:00,
2013-08-11 02:05:00,65.8,63.4,30.05,ENE,78,0.0,0.0,92,0.00,,,0.00,Wunderground v.1.13,2013-08-11 06:05:00,
2013-08-11 02:15:00,65.6,63.2,30.06,ENE,78,0.0,0.0,92,0.00,,,0.00,Wunderground v.1.13,2013-08-11 06:15:00,
2013-08-11 02:25:00,65.3,62.9,30.06,ENE,78,0.0,0.0,92,0.00,,,0.00,Wunderground v.1.13,2013-08-11 06:25:00,
2013-08-11 02:35:00,65.1,62.7,30.06,ENE,78,0.0,0.0,92,0.00,,,0.00,Wunderground v.1.13,2013-08-11 06:35:00,
2013-08-11 02:45:00,64.9,62.5,30.06,ENE,78,0.0,0.0,92,0.00,,,0.00,Wunderground v.1.13,2013-08-11 06:45:00,
2013-08-11 02:50:00,64.8,62.4,30.05,ENE,78,0.0,0.0,92,0.00,,,0.00,Wunderground v.1.13,2013-08-11 06:50:00,
2013-08-11 03:00:00,64.6,62.2,30.05,ENE,78,0.0,0.0,92,0.00,,,0.00,Wunderground v.1.13,2013-08-11 07:00:00,
2013-08-11 03:05:00,64.5,62.1,30.05,ENE,78,0.0,0.0,92,0.00,,,0.00,Wunderground v.1.13,2013-08-11 07:05:00,
2013-08-11 03:15:00,64.5,62.1,30.06,ENE,78,0.0,0.0,92,0.00,,,0.00,Wunderground v.1.13,2013-08-11 07:15:00,
2013-08-11 03:25:00,64.3,61.9,30.06,ENE,78,0.0,0.0,92,0.00,,,0.00,Wunderground v.1.13,2013-08-11 07:25:00,
2013-08-11 03:40:00,64.0,61.6,30.06,ENE,78,0.0,0.0,92,0.00,,,0.00,Wunderground v.1.13,2013-08-11 07:40:00,
2013-08-11 03:50:00,64.0,61.9,30.06,ENE,78,0.0,0.0,93,0.00,,,0.00,Wunderground v.1.13,2013-08-11 07:50:00,
2013-08-11 04:00:00,64.0,61.9,30.07,ENE,78,0.0,0.0,93,0.00,,,0.00,Wunderground v.1.13,2013-08-11 08:00:00,
2013-08-11 04:05:00,63.9,61.8,30.07,ENE,78,0.0,0.0,93,0.00,,,0.00,Wunderground v.1.13,2013-08-11 08:05:00,
2013-08-11 04:20:00,63.7,61.3,30.07,ENE,78,0.0,0.0,92,0.00,,,0.00,Wunderground v.1.13,2013-08-11 08:20:00,
2013-08-11 04:30:00,63.7,61.6,30.07,ENE,78,0.0,0.0,93,0.00,,,0.00,Wunderground v.1.13,2013-08-11 08:30:00,
2013-08-11 04:40:00,63.6,61.5,30.06,ENE,78,0.0,0.0,93,0.00,,,0.00,Wunderground v.1.13,2013-08-11 08:40:00,
2013-08-11 04:45:00,63.5,61.4,30.06,ENE,78,0.0,0.0,93,0.00,,,0.00,Wunderground v.1.13,2013-08-11 08:45:00,
2013-08-11 04:55:00,63.3,61.2,30.07,ENE,78,0.0,0.0,93,0.00,,,0.00,Wunderground v.1.13,2013-08-11 08:55:00,
2013-08-11 05:05:00,63.1,61.0,30.07,ENE,78,0.0,0.0,93,0.00,,,0.00,Wunderground v.1.13,2013-08-11 09:05:00,
2013-08-11 05:15:00,62.9,60.8,30.07,ENE,78,0.0,0.0,93,0.00,,,0.00,Wunderground v.1.13,2013-08-11 09:15:00,
2013-08-11 05:20:00,62.8,60.7,30.07,ENE,78,0.0,0.0,93,0.00,,,0.00,Wunderground v.1.13,2013-08-11 09:20:00,
2013-08-11 05:30:00,62.7,60.6,30.07,ENE,78,0.0,0.0,93,0.00,,,0.00,Wunderground v.1.13,2013-08-11 09:30:00,
2013-08-11 05:40:00,62.7,60.6,30.07,ENE,78,0.0,0.0,93,0.00,,,0.00,Wunderground v.1.13,2013-08-11 09:40:00,
2013-08-11 05:50:00,62.7,60.6,30.07,ENE,78,0.0,0.0,93,0.00,,,0.00,Wunderground v.1.13,2013-08-11 09:50:00,
2013-08-11 06:00:00,62.6,60.5,30.08,ENE,78,0.0,0.0,93,0.00,,,0.00,Wunderground v.1.13,2013-08-11 10:00:00,
2013-08-11 06:05:00,62.6,60.5,30.08,ENE,78,0.0,0.0,93,0.00,,,0.00,Wunderground v.1.13,2013-08-11 10:05:00,
2013-08-11 06:15:00,62.6,60.5,30.08,ENE,78,0.0,0.0,93,0.00,,,0.00,Wunderground v.1.13,2013-08-11 10:15:00,
2013-08-11 06:35:00,62.3,60.2,30.08,ENE,78,0.0,0.0,93,0.00,,,0.00,Wunderground v.1.13,2013-08-11 10:35:00,
2013-08-11 06:45:00,62.3,60.2,30.08,ENE,78,0.0,0.0,93,0.00,,,0.00,Wunderground v.1.13,2013-08-11 10:45:00,
2013-08-11 06:55:00,62.3,60.2,30.08,ENE,78,0.0,0.0,93,0.00,,,0.00,Wunderground v.1.13,2013-08-11 10:55:00,
2013-08-11 07:00:00,62.4,60.3,30.08,ENE,78,0.0,0.0,93,0.00,,,0.00,Wunderground v.1.13,2013-08-11 11:00:00,
2013-08-11 07:05:00,62.4,60.7,30.08,ENE,78,0.0,0.0,94,0.00,,,0.00,Wunderground v.1.13,2013-08-11 11:05:00,
2013-08-11 07:15:00,62.5,60.7,30.08,ENE,78,0.0,0.0,94,0.00,,,0.00,Wunderground v.1.13,2013-08-11 11:15:00,
2013-08-11 07:20:00,62.5,60.7,30.08,ENE,78,0.0,0.0,94,0.00,,,0.00,Wunderground v.1.13,2013-08-11 11:20:00,
2013-08-11 07:25:00,62.6,60.8,30.08,ENE,78,0.0,0.0,94,0.00,,,0.00,Wunderground v.1.13,2013-08-11 11:25:00,
2013-08-11 07:35:00,62.8,61.0,30.09,ENE,78,0.0,0.0,94,0.00,,,0.00,Wunderground v.1.13,2013-08-11 11:35:00,
2013-08-11 07:40:00,62.9,61.1,30.09,ENE,78,0.0,0.0,94,0.00,,,0.00,Wunderground v.1.13,2013-08-11 11:40:00,
2013-08-11 07:45:00,63.1,61.3,30.09,ENE,78,0.0,0.0,94,0.00,,,0.00,Wunderground v.1.13,2013-08-11 11:45:00,
2013-08-11 07:55:00,63.4,61.6,30.09,ENE,78,0.0,0.0,94,0.00,,,0.00,Wunderground v.1.13,2013-08-11 11:55:00,
2013-08-11 08:05:00,63.6,62.1,30.09,ENE,78,0.0,0.0,95,0.00,,,0.00,Wunderground v.1.13,2013-08-11 12:05:00,
2013-08-11 08:25:00,64.1,62.6,30.09,ENE,78,0.0,0.0,95,0.00,,,0.00,Wunderground v.1.13,2013-08-11 12:25:00,
2013-08-11 08:30:00,64.3,62.8,30.09,ENE,78,0.0,0.0,95,0.00,,,0.00,Wunderground v.1.13,2013-08-11 12:30:00,
2013-08-11 08:45:00,65.2,63.1,30.09,SSW,196,0.0,0.0,93,0.00,,,0.00,Wunderground v.1.13,2013-08-11 12:45:00,
2013-08-11 08:55:00,66.1,63.7,30.09,SSW,197,0.0,0.0,92,0.00,,,0.00,Wunderground v.1.13,2013-08-11 12:55:00,
2013-08-11 09:05:00,67.7,63.4,30.09,South,180,1.0,1.0,86,0.00,,,0.00,Wunderground v.1.13,2013-08-11 13:05:00,
2013-08-11 09:15:00,68.3,63.3,30.10,SSW,207,1.0,3.0,84,0.00,,,0.00,Wunderground v.1.13,2013-08-11 13:15:00,
2013-08-11 09:25:00,68.2,63.2,30.10,SSW,206,2.0,2.0,84,0.00,,,0.00,Wunderground v.1.13,2013-08-11 13:25:00,
2013-08-11 09:35:00,68.7,62.6,30.10,South,175,2.0,2.0,81,0.00,,,0.00,Wunderground v.1.13,2013-08-11 13:35:00,
2013-08-11 09:45:00,69.1,63.7,30.09,SSE,168,0.0,3.0,83,0.00,,,0.00,Wunderground v.1.13,2013-08-11 13:45:00,
2013-08-11 09:55:00,69.6,63.9,30.10,SSW,209,1.0,3.0,82,0.00,,,0.00,Wunderground v.1.13,2013-08-11 13:55:00,
2013-08-11 10:00:00,70.3,64.5,30.10,SSE,163,1.0,1.0,82,0.00,,,0.00,Wunderground v.1.13,2013-08-11 14:00:00,
2013-08-11 10:10:00,71.2,64.4,30.10,SSE,150,2.0,5.0,79,0.00,,,0.00,Wunderground v.1.13,2013-08-11 14:10:00,
2013-08-11 10:30:00,71.9,64.3,30.10,SSE,163,2.0,2.0,77,0.00,,,0.00,Wunderground v.1.13,2013-08-11 14:30:00,
2013-08-11 10:40:00,72.3,65.1,30.09,SSE,159,2.0,2.0,78,0.00,,,0.00,Wunderground v.1.13,2013-08-11 14:40:00,
2013-08-11 11:00:00,73.7,65.7,30.09,SSE,161,1.0,5.0,76,0.00,,,0.00,Wunderground v.1.13,2013-08-11 15:00:00,
2013-08-11 11:10:00,74.6,66.5,30.08,SSE,165,1.0,5.0,76,0.00,,,0.00,Wunderground v.1.13,2013-08-11 15:10:00,
2013-08-11 11:20:00,74.6,65.8,30.08,South,175,1.0,5.0,74,0.00,,,0.00,Wunderground v.1.13,2013-08-11 15:20:00,
2013-08-11 11:25:00,75.3,67.2,30.09,SSW,192,1.0,5.0,76,0.00,,,0.00,Wunderground v.1.13,2013-08-11 15:25:00,
2013-08-11 11:35:00,75.7,66.4,30.08,SSE,149,2.0,2.0,73,0.00,,,0.00,Wunderground v.1.13,2013-08-11 15:35:00,
2013-08-11 11:45:00,76.2,66.5,30.08,SE,142,1.0,5.0,72,0.00,,,0.00,Wunderground v.1.13,2013-08-11 15:45:00,
2013-08-11 11:55:00,76.4,67.9,30.07,SE,128,1.0,5.0,75,0.00,,,0.00,Wunderground v.1.13,2013-08-11 15:55:00,
2013-08-11 12:05:00,76.4,68.3,30.07,SSE,164,1.0,1.0,76,0.00,,,0.00,Wunderground v.1.13,2013-08-11 16:05:00,
2013-08-11 12:15:00,77.0,68.5,30.06,South,190,1.0,5.0,75,0.00,,,0.00,Wunderground v.1.13,2013-08-11 16:15:00,
2013-08-11 12:25:00,77.5,68.2,30.06,West,272,2.0,5.0,73,0.00,,,0.00,Wunderground v.1.13,2013-08-11 16:25:00,
2013-08-11 12:35:00,78.0,68.2,30.06,North,355,2.0,5.0,72,0.00,,,0.00,Wunderground v.1.13,2013-08-11 16:35:00,
2013-08-11 12:40:00,78.7,68.5,30.06,NNE,24,1.0,1.0,71,0.00,,,0.00,Wunderground v.1.13,2013-08-11 16:40:00,
2013-08-11 12:45:00,78.7,68.5,30.06,West,267,1.0,5.0,71,0.00,,,0.00,Wunderground v.1.13,2013-08-11 16:45:00,
2013-08-11 12:55:00,78.3,68.5,30.06,ESE,115,2.0,2.0,72,0.00,,,0.00,Wunderground v.1.13,2013-08-11 16:55:00,
2013-08-11 13:00:00,78.7,68.5,30.06,SSE,150,2.0,2.0,71,0.00,,,0.00,Wunderground v.1.13,2013-08-11 17:00:00,
2013-08-11 13:05:00,78.8,68.2,30.06,WSW,237,1.0,4.0,70,0.00,,,0.00,Wunderground v.1.13,2013-08-11 17:05:00,
2013-08-11 13:15:00,79.6,69.0,30.06,NNE,17,1.0,4.0,70,0.00,,,0.00,Wunderground v.1.13,2013-08-11 17:15:00,
2013-08-11 13:20:00,80.0,68.5,30.06,WSW,251,1.0,4.0,68,0.00,,,0.00,Wunderground v.1.13,2013-08-11 17:20:00,
2013-08-11 13:25:00,79.9,68.8,30.06,SW,223,2.0,6.0,69,0.00,,,0.00,Wunderground v.1.13,2013-08-11 17:25:00,
2013-08-11 13:30:00,79.5,68.9,30.06,SSW,205,2.0,4.0,70,0.00,,,0.00,Wunderground v.1.13,2013-08-11 17:30:00,
2013-08-11 13:35:00,79.4,68.8,30.06,SW,217,3.0,5.0,70,0.00,,,0.00,Wunderground v.1.13,2013-08-11 17:35:00,
2013-08-11 13:50:00,79.5,68.0,30.05,SE,138,2.0,2.0,68,0.00,,,0.00,Wunderground v.1.13,2013-08-11 17:50:00,
2013-08-11 13:55:00,79.5,68.4,30.05,South,169,2.0,2.0,69,0.00,,,0.00,Wunderground v.1.13,2013-08-11 17:55:00,
2013-08-11 14:00:00,79.3,67.8,30.04,SSE,159,1.0,4.0,68,0.00,,,0.00,Wunderground v.1.13,2013-08-11 18:00:00,
2013-08-11 14:05:00,79.4,68.3,30.04,SE,145,1.0,2.0,69,0.00,,,0.00,Wunderground v.1.13,2013-08-11 18:05:00,
2013-08-11 14:15:00,79.3,69.1,30.04,SW,217,1.0,4.0,71,0.00,,,0.00,Wunderground v.1.13,2013-08-11 18:15:00,
2013-08-11 14:20:00,79.9,68.8,30.04,South,180,1.0,1.0,69,0.00,,,0.00,Wunderground v.1.13,2013-08-11 18:20:00,
2013-08-11 14:30:00,80.6,69.1,30.03,SW,228,1.0,2.0,68,0.00,,,0.00,Wunderground v.1.13,2013-08-11 18:30:00,
2013-08-11 14:35:00,81.1,69.1,30.03,WSW,238,1.0,2.0,67,0.00,,,0.00,Wunderground v.1.13,2013-08-11 18:35:00,
2013-08-11 14:40:00,81.2,69.6,30.03,SSE,161,2.0,2.0,68,0.00,,,0.00,Wunderground v.1.13,2013-08-11 18:40:00,
2013-08-11 14:55:00,81.0,69.0,30.02,SSE,153,1.0,2.0,67,0.00,,,0.00,Wunderground v.1.13,2013-08-11 18:55:00,
2013-08-11 15:00:00,80.6,69.1,30.01,SSW,192,1.0,3.0,68,0.00,,,0.00,Wunderground v.1.13,2013-08-11 19:00:00,
2013-08-11 15:05:00,80.7,69.6,30.02,SSE,155,1.0,4.0,69,0.00,,,0.00,Wunderground v.1.13,2013-08-11 19:05:00,
2013-08-11 15:15:00,81.2,69.2,30.01,SSE,165,1.0,1.0,67,0.00,,,0.00,Wunderground v.1.13,2013-08-11 19:15:00,
2013-08-11 15:25:00,81.9,69.4,30.01,WSW,245,1.0,4.0,66,0.00,,,0.00,Wunderground v.1.13,2013-08-11 19:25:00,
2013-08-11 15:30:00,81.9,69.4,30.01,West,269,1.0,4.0,66,0.00,,,0.00,Wunderground v.1.13,2013-08-11 19:30:00,
2013-08-11 15:40:00,82.0,70.8,30.00,South,183,1.0,1.0,69,0.00,,,0.00,Wunderground v.1.13,2013-08-11 19:40:00,
2013-08-11 15:50:00,82.9,71.7,30.00,South,183,0.0,4.0,69,0.00,,,0.00,Wunderground v.1.13,2013-08-11 19:50:00,
2013-08-11 16:05:00,82.9,72.5,30.00,South,183,0.0,2.0,71,0.00,,,0.00,Wunderground v.1.13,2013-08-11 20:05:00,
2013-08-11 16:15:00,83.4,70.4,29.99,South,183,0.0,2.0,65,0.00,,,0.00,Wunderground v.1.13,2013-08-11 20:15:00,
2013-08-11 16:20:00,83.7,71.6,29.99,South,169,0.0,2.0,67,0.00,,,0.00,Wunderground v.1.13,2013-08-11 20:20:00,
2013-08-11 16:30:00,82.5,70.9,29.99,SSE,158,0.0,2.0,68,0.00,,,0.00,Wunderground v.1.13,2013-08-11 20:30:00,
2013-08-11 16:35:00,82.4,72.0,29.99,SSE,158,0.0,2.0,71,0.00,,,0.00,Wunderground v.1.13,2013-08-11 20:35:00,
2013-08-11 16:45:00,82.3,72.0,29.99,SSE,158,1.0,2.0,71,0.00,,,0.00,Wunderground v.1.13,2013-08-11 20:45:00,
2013-08-11 16:55:00,80.5,71.4,29.99,SSE,158,1.0,2.0,74,0.00,,,0.00,Wunderground v.1.13,2013-08-11 20:55:00,
2013-08-11 17:00:00,79.9,71.7,29.98,SSE,158,1.0,1.0,76,0.00,,,0.00,Wunderground v.1.13,2013-08-11 21:00:00,
2013-08-11 17:05:00,79.6,71.8,29.99,SSE,157,0.0,1.0,77,0.00,,,0.00,Wunderground v.1.13,2013-08-11 21:05:00,
2013-08-11 17:15:00,79.1,72.4,29.98,SSE,157,0.0,1.0,80,0.00,,,0.00,Wunderground v.1.13,2013-08-11 21:15:00,
2013-08-11 17:20:00,79.2,71.7,29.99,SSE,157,0.0,1.0,78,0.00,,,0.00,Wunderground v.1.13,2013-08-11 21:20:00,
2013-08-11 17:30:00,80.0,72.5,29.99,SSE,158,0.0,1.0,78,0.00,,,0.00,Wunderground v.1.13,2013-08-11 21:30:00,
2013-08-11 17:35:00,80.5,73.0,29.98,SSE,158,0.0,1.0,78,0.00,,,0.00,Wunderground v.1.13,2013-08-11 21:35:00,
2013-08-11 18:10:00,78.4,70.6,29.98,SSE,158,1.0,1.0,77,0.00,,,0.00,Wunderground v.1.13,2013-08-11 22:10:00,
2013-08-11 18:20:00,77.8,71.1,29.98,SSE,157,0.0,2.0,80,0.00,,,0.00,Wunderground v.1.13,2013-08-11 22:20:00,
2013-08-11 18:35:00,74.9,70.8,29.98,NE,41,2.0,2.0,87,0.00,,,0.00,Wunderground v.1.13,2013-08-11 22:35:00,
2013-08-11 18:40:00,74.3,70.5,29.98,NE,41,2.0,2.0,88,0.00,,,0.00,Wunderground v.1.13,2013-08-11 22:40:00,
2013-08-11 18:45:00,73.8,70.0,29.98,NE,41,1.0,2.0,88,0.00,,,0.00,Wunderground v.1.13,2013-08-11 22:45:00,
2013-08-11 19:00:00,73.7,69.9,29.98,SSE,157,1.0,1.0,88,0.00,,,0.00,Wunderground v.1.13,2013-08-11 23:00:00,
2013-08-11 19:10:00,73.7,70.3,29.99,SSE,158,0.0,1.0,89,0.00,,,0.00,Wunderground v.1.13,2013-08-11 23:10:00,
2013-08-11 19:15:00,73.5,70.1,29.99,SSE,157,0.0,1.0,89,0.00,,,0.00,Wunderground v.1.13,2013-08-11 23:15:00,
2013-08-11 19:25:00,73.0,69.6,30.00,SSE,157,1.0,1.0,89,0.00,,,0.00,Wunderground v.1.13,2013-08-11 23:25:00,
2013-08-11 19:35:00,72.6,69.5,29.99,SSE,157,0.0,1.0,90,0.00,,,0.00,Wunderground v.1.13,2013-08-11 23:35:00,
2013-08-11 19:45:00,72.1,69.6,29.99,SSE,157,0.0,1.0,92,0.00,,,0.00,Wunderground v.1.13,2013-08-11 23:45:00,
2013-08-11 19:50:00,72.0,69.5,30.00,SSE,157,0.0,1.0,92,0.00,,,0.00,Wunderground v.1.13,2013-08-11 23:50:00,
2013-08-11 20:00:00,71.6,69.2,30.00,SSE,157,0.0,1.0,92,0.00,,,0.00,Wunderground v.1.13,2013-08-12 00:00:00,
2013-08-11 20:05:00,71.4,69.0,30.00,SSE,157,0.0,2.0,92,0.00,,,0.00,Wunderground v.1.13,2013-08-12 00:05:00,
2013-08-11 20:15:00,71.4,69.0,30.00,SSE,157,0.0,2.0,92,0.00,,,0.00,Wunderground v.1.13,2013-08-12 00:15:00,
2013-08-11 20:20:00,71.3,68.9,30.00,SSE,157,1.0,1.0,92,0.00,,,0.00,Wunderground v.1.13,2013-08-12 00:20:00,
2013-08-11 20:30:00,71.2,68.8,30.00,SSE,157,0.0,2.0,92,0.00,,,0.00,Wunderground v.1.13,2013-08-12 00:30:00,
2013-08-11 20:40:00,71.0,68.9,30.00,SSE,157,0.0,2.0,93,0.00,,,0.00,Wunderground v.1.13,2013-08-12 00:40:00,
2013-08-11 20:45:00,71.0,68.9,30.00,SSE,157,0.0,2.0,93,0.00,,,0.00,Wunderground v.1.13,2013-08-12 00:45:00,
2013-08-11 20:50:00,70.9,68.8,30.00,SSE,157,0.0,2.0,93,0.00,,,0.00,Wunderground v.1.13,2013-08-12 00:50:00,
2013-08-11 21:00:00,70.8,68.7,30.00,SSE,157,0.0,2.0,93,0.00,,,0.00,Wunderground v.1.13,2013-08-12 01:00:00,
2013-08-11 21:05:00,70.9,68.8,30.00,SSE,157,0.0,0.0,93,0.00,,,0.00,Wunderground v.1.13,2013-08-12 01:05:00,
2013-08-11 21:15:00,70.8,68.7,30.00,SSE,157,0.0,0.0,93,0.00,,,0.00,Wunderground v.1.13,2013-08-12 01:15:00,
2013-08-11 21:30:00,70.6,68.5,30.01,SSE,157,0.0,2.0,93,0.00,,,0.00,Wunderground v.1.13,2013-08-12 01:30:00,
2013-08-11 21:40:00,70.7,68.9,30.02,SSW,211,0.0,0.0,94,0.00,,,0.00,Wunderground v.1.13,2013-08-12 01:40:00,
2013-08-11 21:50:00,70.6,68.8,30.02,SSW,211,0.0,0.0,94,0.00,,,0.00,Wunderground v.1.13,2013-08-12 01:50:00,
2013-08-11 22:00:00,70.6,68.8,30.02,SSW,211,0.0,0.0,94,0.00,,,0.00,Wunderground v.1.13,2013-08-12 02:00:00,
2013-08-11 22:15:00,70.7,68.9,30.02,SSW,211,0.0,2.0,94,0.00,,,0.00,Wunderground v.1.13,2013-08-12 02:15:00,
2013-08-11 22:25:00,70.6,68.8,30.02,WSW,256,1.0,1.0,94,0.00,,,0.00,Wunderground v.1.13,2013-08-12 02:25:00,
2013-08-11 22:30:00,70.5,68.7,30.02,WSW,257,0.0,1.0,94,0.00,,,0.00,Wunderground v.1.13,2013-08-12 02:30:00,
2013-08-11 22:40:00,70.2,68.7,30.02,WSW,256,1.0,1.0,95,0.00,,,0.00,Wunderground v.1.13,2013-08-12 02:40:00,
2013-08-11 22:45:00,70.2,68.7,30.02,WSW,257,0.0,0.0,95,0.00,,,0.00,Wunderground v.1.13,2013-08-12 02:45:00,
2013-08-11 22:55:00,70.1,68.3,30.02,WSW,256,0.0,0.0,94,0.00,,,0.00,Wunderground v.1.13,2013-08-12 02:55:00,
2013-08-11 23:05:00,70.1,68.6,30.02,WSW,256,0.0,2.0,95,0.00,,,0.00,Wunderground v.1.13,2013-08-12 03:05:00,
2013-08-11 23:15:00,70.0,68.5,30.02,WSW,257,0.0,2.0,95,0.00,,,0.00,Wunderground v.1.13,2013-08-12 03:15:00,
2013-08-11 23:20:00,70.1,68.6,30.02,WSW,257,0.0,2.0,95,0.00,,,0.00,Wunderground v.1.13,2013-08-12 03:20:00,
2013-08-11 23:35:00,70.0,68.5,30.02,WSW,257,0.0,2.0,95,0.00,,,0.00,Wunderground v.1.13,2013-08-12 03:35:00,
2013-08-11 23:40:00,70.0,68.5,30.02,WSW,257,0.0,2.0,95,0.00,,,0.00,Wunderground v.1.13,2013-08-12 03:40:00,
2013-08-11 23:50:00,70.1,68.6,30.02,WSW,257,0.0,2.0,95,0.00,,,0.00,Wunderground v.1.13,2013-08-12 03:50:00,
2013-08-11 23:55:00,70.1,68.6,30.01,WSW,257,0.0,2.0,95,0.00,,,0.00,Wunderground v.1.13,2013-08-12 03:55:00,